Location: Pokrovka
(52.9667°N, 53.8000°E)
Time: 10:46:38
(UTC+00:00)

Daily predictions for brighter satellites

Satellite Brightness Start Highest point End
(mag) Time Altitude Azimuth Time Altitude Azimuth Time Altitude Azimuth
Cosmos 1992 Rocket 4.1 13:43:17 10° SSW 13:48:31 87° WNW 13:53:47 10° NNE
Cosmos 2084 Rocket 3.7 13:44:22 10° NW 13:48:47 58° NE 13:53:08 10° ESE
BREEZE-M DEB (TANK) 3.7 13:45:19 10° W 13:49:16 65° SSW 13:58:05 10° ESE
Unknown 3.7 13:45:12 10° W 13:49:21 87° S 13:53:31 10° E
Okean O Rocket 4.2 13:46:37 10° SSW 13:50:27 28° W 13:54:17 10° NW
Cosmos 1833 Rocket 2.7 13:46:25 10° NNW 13:52:04 70° NE 13:57:40 10° SE
Unknown 3.6 13:50:12 10° W 13:54:22 88° SSE 13:58:31 10° E
CZ-4B R/B 4.2 13:53:38 10° NNW 13:55:25 14° WNW 13:57:11 10° W
Unknown 3.6 13:51:50 10° W 13:55:59 89° S 14:00:09 10° E
Cosmos 1953 2.6 13:52:17 10° SSW 13:56:21 76° WNW 14:00:27 10° N
Unknown 3.6 13:53:32 10° W 13:57:42 89° S 14:01:52 10° E
COSMO-SKYMED 1 3.4 13:54:17 10° NNE 13:58:08 29° E 14:01:56 10° SSE
Unknown 3.7 13:55:07 10° W 13:59:18 89° SSE 14:03:27 10° E
YAOGAN 6 3.1 13:56:31 10° SE 13:59:54 38° ENE 14:03:17 10° N
Unknown 3.6 13:56:50 10° W 14:00:59 90° SSW 14:05:03 11° E
Unknown 3.4 13:58:33 10° W 14:02:25 89° S 14:06:13 10° E
ASTEX 1 3.6 13:57:52 10° NNE 14:02:42 49° E 14:07:31 10° SSE
Unknown 3.6 13:58:35 10° W 14:02:45 90° NNW 14:06:44 11° E
Cosmos 1821 Rocket 4.5 13:57:02 10° NNW 14:03:06 67° W 14:09:13 10° S
Cosmos 1605 Rocket 4.0 13:57:51 10° N 14:04:00 62° ENE 14:10:03 10° SSE
Cosmos 1777 Rocket 4.1 13:59:20 10° NNW 14:04:34 83° WSW 14:09:47 10° SSE
Cosmos 1953 Rocket 4.3 14:00:32 10° NNW 14:04:50 58° W 14:09:05 10° S
Cosmos 1934 Rocket 4.1 13:58:54 10° N 14:05:17 87° ENE 14:11:41 10° S
Cosmos 1470 4.4 14:01:50 10° SW 14:05:34 39° WNW 14:09:19 10° N
Unknown 3.6 14:01:55 10° W 14:06:05 89° NNE 14:09:56 12° E
Unknown 3.6 14:01:56 10° W 14:06:06 89° NNE 14:09:56 12° E
Unknown 3.6 14:03:27 10° W 14:07:38 89° N 14:11:25 12° E
Unknown 3.6 14:06:43 10° W 14:10:52 89° NNW 14:14:32 13° E
Lacrosse 5 2.3 14:06:35 10° WNW 14:11:37 65° SW 14:16:37 10° SE
ATLAS 3B R/B 4.1 14:09:51 10° SE 14:13:13 14° ESE 14:15:35 12° E
Okean-O 3.1 14:09:29 10° S 14:13:54 67° WSW 14:18:21 10° NNW
Unknown 3.6 14:10:07 10° W 14:14:17 88° N 14:17:49 14° E
Unknown 3.6 14:11:48 10° W 14:15:57 88° N 14:19:25 15° E
CZ-4 R/B 4.4 14:13:03 10° SSE 14:17:09 67° ENE 14:21:16 10° N
Unknown 3.6 14:13:28 10° W 14:17:38 88° N 14:21:01 15° E
Cosmos 1606 Rocket 4.3 14:13:46 10° SSW 14:18:04 58° WNW 14:22:22 10° N
Cosmos 2227 Rocket 4.4 14:15:51 10° NNW 14:18:17 13° N 14:20:43 10° NNE
Unknown 3.6 14:15:09 10° W 14:19:19 88° N 14:22:38 16° E
Cosmos 1076 Rocket 4.0 14:15:27 10° N 14:19:33 38° ENE 14:23:37 10° SE
CENTAUR R/B 3.9 14:16:36 10° SE 14:20:10 16° ESE 14:22:29 14° E
Cosmos 1727 Rocket 4.3 14:15:48 10° SSE 14:21:29 41° E 14:27:12 10° NNE
Unknown 3.6 14:18:28 10° W 14:22:38 88° N 14:25:50 17° E
Cosmos 2058 3.7 14:19:16 10° N 14:23:04 31° ENE 14:26:49 10° SE
Cosmos 2297 Rocket 4.4 14:20:47 10° NNW 14:23:08 12° N 14:25:29 10° NNE
Cosmos 1328 4.4 14:19:31 10° NNW 14:23:27 60° W 14:27:19 10° S
Unknown 3.6 14:20:11 10° W 14:24:21 88° N 14:27:29 17° E
Cosmos 2082 Rocket 2.2 14:19:05 10° NNW 14:24:51 82° ENE 14:30:33 10° SSE
Unknown 3.6 14:21:46 10° W 14:25:56 88° N 14:28:59 18° E
CSL-04 Debris 4.2 14:20:57 10° SSE 14:26:22 70° ENE 14:31:52 10° NNW
Unknown 3.4 14:23:16 10° W 14:27:11 84° S 14:30:02 18° ESE
Unknown 3.6 14:23:23 10° W 14:27:33 88° N 14:30:32 18° E
Cosmos 1300 3.7 14:25:53 10° SE 14:29:03 26° E 14:32:16 10° NNE
Unknown 3.6 14:25:06 10° W 14:29:16 88° N 14:32:12 19° E
Cosmos 1242 Rocket 4.4 14:26:38 10° NNW 14:30:03 36° W 14:33:26 10° SSW
Unknown 3.6 14:26:36 10° W 14:30:45 88° N 14:33:37 20° E
Unknown 3.6 14:29:54 10° W 14:34:04 88° N 14:36:47 21° E
Cosmos 1844 Rocket 3.7 14:29:18 10° WSW 14:34:44 46° NW 14:40:11 10° NNE
Unknown 3.6 14:31:34 10° W 14:35:43 88° N 14:38:23 22° E
Resurs 01 Rocket 3.8 14:37:03 10° NE 14:37:03 10° NE 14:37:22 10° NE
Unknown 3.6 14:33:26 10° W 14:37:36 88° N 14:40:11 22° E
CZ-2D R/B 3.5 14:34:10 10° SE 14:37:53 47° ENE 14:41:39 10° N
Cosmos 2151 4.1 14:35:02 10° N 14:38:38 25° ENE 14:40:01 21° E
Cosmos 1812 Rocket 3.9 14:34:48 10° SSE 14:39:01 44° E 14:43:17 10° NNE
Unknown 3.6 14:34:55 10° W 14:39:05 88° N 14:41:37 23° E
SL-27 R/B 3.8 14:37:45 10° N 14:40:18 20° NE 14:40:20 20° NE
Unknown 3.6 14:36:33 10° W 14:40:43 88° N 14:43:11 24° E
Cosmos 1939 Rocket 3.1 14:38:21 10° SE 14:42:14 49° ENE 14:46:12 10° N
Envisat 3.7 14:38:36 10° S 14:43:36 59° W 14:48:39 10° NNW
Unknown 3.5 14:39:50 10° W 14:43:54 88° SSW 14:46:10 25° E
Unknown 3.6 14:39:55 10° W 14:44:05 88° NNE 14:46:24 25° E
Unknown 3.6 14:41:32 10° W 14:45:42 88° N 14:47:57 26° E
SKYMED 2 3.5 14:42:03 10° NNE 14:46:25 80° ESE 14:50:46 10° SSW
Unknown 3.6 14:43:13 10° W 14:47:23 88° NNE 14:49:34 27° E
In-Cosmos 22 Rocket 4.3 14:42:37 10° N 14:47:53 51° ENE 14:53:15 10° SSE
USA 238 DEB 3.8 14:41:53 10° SSW 14:48:21 52° SE 14:54:31 12° NE
USA 238 3.8 14:42:00 10° SSW 14:48:27 52° SE 14:54:34 13° NE
Unknown 3.6 14:44:53 10° W 14:49:04 89° N 14:51:11 28° E
Cosmos 1898 Rocket 3.6 14:44:06 10° NNW 14:49:20 58° ENE 14:54:00 13° SE
YAOGAN 1 2.6 14:45:27 10° SSE 14:49:47 81° WSW 14:54:09 10° NNW
Cosmos 2100 Rocket 4.0 14:43:43 10° N 14:49:51 58° ENE 14:55:54 10° SSE
Cosmos 44 4.2 14:46:35 10° S 14:50:38 26° ESE 14:51:26 25° E
COBE Rocket 4.2 14:46:21 10° N 14:51:31 74° WNW 14:56:34 10° SSW
H-2A R/B 3.1 14:50:34 23° E 14:52:19 27° ENE 14:56:50 10° N
Unknown 3.5 14:48:15 10° W 14:52:26 89° NNE 14:54:25 30° E
ATLAS 5 CENTAUR R/B 3.1 14:48:45 10° W 14:52:58 34° NNW 14:57:23 12° NE
Unknown 3.5 14:49:04 10° W 14:53:11 89° S 14:55:06 31° E
Unknown 3.5 14:49:14 10° W 14:53:24 90° N 14:55:21 31° E
Unknown 3.5 14:50:00 10° W 14:54:09 89° S 14:56:05 31° E
Cosmos 292 Rocket 4.4 14:49:45 10° SW 14:54:26 56° WNW 14:59:09 10° NNE
Unknown 3.6 14:51:46 10° W 14:55:56 89° SSW 14:57:48 32° E
Unknown 3.5 14:54:55 10° W 14:59:04 89° SW 15:00:48 34° E
Unknown 3.5 14:58:13 10° W 15:02:24 89° S 15:03:59 37° E
Unknown 4.0 14:59:18 10° W 15:02:55 49° SSW 15:04:32 28° SE
Unknown 3.5 14:59:52 10° W 15:04:02 88° S 15:05:34 38° E
Unknown 3.5 15:01:32 10° W 15:05:42 88° S 15:07:10 39° E
Cosmos 2016 Rocket 4.1 14:59:49 10° N 15:05:57 51° ENE 15:11:50 11° SSE
Cosmos 1726 4.0 15:03:07 10° SW 15:06:25 31° WNW 15:09:43 10° N
Unknown 3.5 15:03:10 10° W 15:07:19 88° SSW 15:08:44 41° E
USA 116 3.1 15:04:38 10° NNE 15:07:52 85° ESE 15:11:20 10° SSW
Cosmos 2278 Rocket 2.3 15:03:05 10° SW 15:08:47 80° WNW 15:14:31 10° NNE
DMSP B5D1-3 4.5 15:03:52 10° NNE 15:08:57 60° ESE 15:14:02 10° S
EO 1 Delta rocket 4.4 15:04:57 10° S 15:09:34 63° W 15:14:54 10° NNW
NOSS 3-2 (A) 3.5 15:05:06 10° SSW 15:10:50 57° SE 15:15:24 20° NE
Cosmos 2297 3.9 15:08:22 10° S 15:13:46 45° ESE 15:17:31 19° NE
Unknown 3.5 15:09:51 10° W 15:14:01 86° S 15:15:09 47° ESE
CZ-4 R/B 3.1 15:11:11 10° SSW 15:15:06 37° W 15:19:03 10° NNW
Unknown 3.5 15:11:32 10° W 15:15:42 85° S 15:16:46 49° ESE
Unknown 3.5 15:13:10 10° W 15:17:21 85° S 15:18:21 51° ESE
Unknown 3.5 15:14:49 10° W 15:18:59 84° S 15:19:55 53° ESE
ATLAS CENTAUR R/B 2.5 15:15:58 10° NW 15:20:08 31° NNE 15:20:43 30° NE
Unknown 3.5 15:16:28 10° W 15:20:38 84° S 15:21:30 55° ESE
Abrixas rocket 3.3 15:21:04 10° WSW 15:23:22 31° SSW 15:23:22 31° SSW
Unknown 3.5 15:19:48 10° W 15:23:59 82° S 15:24:43 59° ESE
ARGOS 3.6 15:23:28 38° E 15:24:24 41° ENE 15:29:29 10° N
Starlink (trailer) 3.5 15:21:27 10° W 15:25:37 82° S 15:26:17 61° ESE
SJ 16-02 1.2 15:21:24 10° NNW 15:25:49 75° ENE 15:26:59 47° SE
Ariane Rocket 3.1 15:21:04 10° SSE 15:26:11 79° WSW 15:31:19 10° NNW
ADEOS Rocket 3.9 15:19:20 10° NNE 15:26:21 37° E 15:29:47 25° SE
Unknown 3.5 15:23:09 10° W 15:27:19 81° SSW 15:27:55 63° ESE
Unknown 3.5 15:24:49 10° W 15:28:59 80° SSW 15:29:31 65° SE
SJ-6B 3.8 15:30:51 32° NNE 15:30:51 32° NNE 15:33:11 10° N
Cosmos 468 Rocket 4.1 15:25:36 10° S 15:30:40 50° ESE 15:31:38 44° ENE
Unknown 3.5 15:29:49 10° W 15:33:59 78° SSW 15:34:20 71° SE
COSMO-SKYMED 1 4.0 15:30:20 10° N 15:34:24 39° WNW 15:38:26 10° SW
Unknown 3.5 15:31:27 10° W 15:35:37 78° SSW 15:35:53 72° SSE
Cosmos 2150 Rocket 4.3 15:30:50 10° NNW 15:36:09 49° ENE 15:36:43 47° ENE
Cosmos 1825 4.3 15:32:50 10° N 15:33:52 17° NNE 15:33:52 17° NNE
Cosmos 1459 Rocket 4.1 15:30:45 10° NNW 15:36:59 78° W 15:43:17 10° S
deb Kosmos-1763 4.1 15:33:18 10° NNW 15:36:39 69° N 15:36:39 69° N
NOSS 3-2 (C) 3.5 15:31:27 10° SSW 15:37:12 57° SE 15:39:31 38° ENE
Unknown 3.5 15:33:09 10° W 15:37:18 77° SSW 15:37:32 74° SSE
Cosmos 990 Rocket 4.2 15:33:27 10° NNW 15:38:38 69° WSW 15:41:58 22° S
Unknown 3.5 15:34:44 10° W 15:38:55 76° SSW 15:39:06 74° SSE
Cosmos 1937 Rocket 3.4 15:34:29 10° NNW 15:39:40 83° WSW 15:41:49 36° SSE
Unknown 3.5 15:36:27 10° W 15:40:36 75° SSW 15:40:41 75° S
Unknown 4.2 15:36:59 10° W 15:40:38 42° SSW 15:40:45 42° SSW
Unknown 3.6 15:38:12 10° W 15:42:21 73° SSW 15:42:23 73° SSW
Cosmos 1892 2.7 15:38:43 10° NNW 15:42:10 71° NNW 15:42:10 71° NNW
Cosmos 2061 Rocket 3.9 15:37:41 10° N 15:44:00 90° W 15:49:47 12° S
HJ-1C 4.2 15:43:51 48° WSW 15:44:10 51° W 15:47:28 10° NNW
Unknown 3.6 15:41:32 10° W 15:45:35 71° SSW 15:45:35 71° SSW
Unknown 3.6 15:41:33 10° W 15:45:35 72° SSW 15:45:35 72° SSW
Unknown 3.7 15:43:05 10° W 15:47:04 71° SW 15:47:04 71° SW
Unknown 3.8 15:46:20 10° W 15:50:11 68° SW 15:50:11 68° SW
CZ-2C R/B 3.5 15:51:02 49° ENE 15:51:02 49° ENE 15:56:28 10° N
Cosmos 1766 Rocket 3.5 15:47:09 10° NNW 15:51:30 79° W 15:51:58 69° SSW
Meteor 2-3 Rocket 4.1 15:45:57 10° N 15:51:09 46° ENE 15:51:09 46° ENE
Lacrosse 5 4.2 15:50:27 10° W 15:53:50 18° SW 15:57:13 10° SSW
Unknown 3.9 15:49:45 10° W 15:53:28 63° WSW 15:53:28 63° WSW
Unknown 4.0 15:51:25 10° W 15:55:04 61° WSW 15:55:04 61° WSW
Cosmos 1238 Rocket 4.1 15:49:28 10° N 15:55:58 53° ENE 15:56:10 52° ENE
Unknown 4.0 15:53:05 10° W 15:56:40 59° WSW 15:56:40 59° WSW
Unknown 4.1 15:54:46 10° W 15:58:17 57° WSW 15:58:17 57° WSW
Cosmos 1408 Rocket 4.0 15:57:51 10° N 16:01:11 52° N 16:01:11 52° N
Unknown 4.2 15:58:06 10° W 16:01:29 52° WSW 16:01:29 52° WSW
Cosmos 372 Rocket 4.0 15:57:18 10° NNW 16:02:02 64° NNE 16:02:02 64° NNE
ATLAS 3B R/B 2.5 15:56:02 10° SSW 16:02:36 59° SE 16:02:54 59° ESE
Unknown 4.3 15:59:48 10° W 16:03:08 50° WSW 16:03:08 50° WSW
Cosmos 1300 4.4 16:01:09 10° SW 16:04:37 33° WNW 16:08:08 10° N
Cosmos 2227 Rocket 4.1 16:01:15 10° NNW 16:04:53 17° NNE 16:05:14 17° NNE
Unknown 4.4 16:01:24 10° W 16:04:38 49° WSW 16:04:38 49° WSW
Cosmos 2298 Rocket 3.9 16:00:51 10° NNW 16:06:12 82° ENE 16:06:12 82° ENE
Unknown 4.5 16:03:00 10° W 16:06:11 47° WSW 16:06:11 47° WSW
Cosmos 1763 Rocket 4.4 16:01:52 10° SSW 16:04:57 36° S 16:04:57 36° S
CENTAUR R/B 2.5 16:03:17 10° SSW 16:09:20 66° SE 16:09:44 65° ESE
Cosmos 2297 Rocket 4.0 16:05:52 10° NNW 16:09:40 18° NNE 16:09:43 18° NNE
Resurs 01 Rocket 3.3 16:14:38 25° N 16:14:38 25° N 16:16:38 10° N
SPOT 3 Rocket 3.6 16:15:18 68° SSW 16:15:48 74° WSW 16:21:04 10° NNW
Cosmos 2151 4.0 16:12:01 10° NNW 16:16:08 44° W 16:16:37 42° WSW
Cosmos 2123 Rocket 3.9 16:17:12 10° S 16:23:30 85° W 16:29:49 10° N
Cosmos 2233 Rocket 3.9 16:21:23 10° N 16:27:43 87° W 16:28:12 78° S
Cosmos 1725 Rocket 4.4 16:23:39 10° NNW 16:29:49 59° W 16:32:49 31° SSW
H-2A R/B 2.4 16:31:12 65° WSW 16:31:21 65° WSW 16:36:48 10° NNW
Cosmos 44 4.3 16:26:43 10° SW 16:29:54 39° WSW 16:29:54 39° WSW
ATLAS 5 CENTAUR R/B 3.6 16:34:44 10° NW 16:38:54 27° N 16:38:54 27° N
USA 238 DEB 4.1 16:32:39 10° WSW 16:39:20 58° NNW 16:41:57 37° NNE
USA 238 4.1 16:32:45 10° WSW 16:39:26 58° NNW 16:42:01 38° NNE
Cosmos 2278 Rocket 4.2 16:49:12 10° W 16:53:47 24° NW 16:58:12 11° NNE
ATLAS CENTAUR R/B 3.7 16:55:00 10° NW 16:56:54 24° NW 16:56:54 24° NW
NOSS 3-2 (A) 4.2 16:55:55 10° WSW 17:01:52 52° NNW 17:02:49 48° N
SJ 16-02 3.9 17:01:11 10° WNW 17:03:50 16° W 17:04:01 16° W
ARGOS 4.3 17:05:00 39° W 17:05:00 39° W 17:09:49 10° NNW
ADEOS Rocket 3.8 17:04:38 10° NNE 17:12:16 64° WNW 17:16:41 25° SW
NOSS 3-2 (C) 4.4 17:22:18 10° WSW 17:27:00 45° WNW 17:27:00 45° WNW
Cosmos 2227 Rocket 4.3 17:45:01 10° NNW 17:47:02 21° NNW 17:47:02 21° NNW
ATLAS 3B R/B 4.1 17:46:59 10° WSW 17:50:13 29° W 17:50:13 29° W
Cosmos 2297 Rocket 4.3 17:49:38 10° NNW 17:51:31 21° NNW 17:51:31 21° NNW
CENTAUR R/B 4.2 17:54:05 10° W 17:56:59 28° W 17:56:59 28° W
ATLAS 2AS CENTAUR R/B 4.5 22:15:49 26° ESE 22:15:49 26° ESE 22:22:05 10° ENE
Cosmos 2333 Rocket 4.1 22:33:53 25° ENE 22:33:53 25° ENE 22:36:49 10° NE
Resurs 1-4 Rocket 4.4 22:30:07 10° NNE 22:31:35 19° NNE 22:31:35 19° NNE
Cosmos 2219 Rocket 4.0 22:42:37 27° ENE 22:42:37 27° ENE 22:45:38 10° NE
SL-16 R/B 4.1 22:44:10 24° NNE 22:44:10 24° NNE 22:46:31 10° NNE
ATLAS 5 CENTAUR R/B 4.3 22:45:18 34° NNE 22:45:18 34° NNE 22:52:51 10° ENE
ADEOS II 3.8 22:50:38 10° NNE 22:53:14 28° NE 22:53:14 28° NE
Cosmos 2237 Rocket 4.2 22:56:20 21° ESE 22:56:49 21° E 23:01:01 10° NE
Cosmos 2322 Rocket 3.8 23:11:14 26° N 23:11:14 26° N 23:14:02 10° NNE
Cosmos 1709 Rocket 4.5 23:12:15 59° ENE 23:12:15 59° ENE 23:17:54 10° NNE
Lacrosse 4 Rocket 4.4 23:16:42 10° NNE 23:16:42 10° NNE 23:16:43 10° NNE
Cosmos 2360 Rocket 3.4 23:17:54 35° NNE 23:17:54 35° NNE 23:21:13 10° NNE
IDEFIX/ARIANE 42P 4.5 23:15:27 10° NE 23:19:48 26° E 23:22:01 19° SE
COSMOS 2428 3.4 23:23:52 51° ENE 23:23:52 51° ENE 23:28:14 10° NE
Cosmos 1980 Rocket 4.2 23:23:42 18° NNW 23:23:42 18° NNW 23:26:37 10° NNE
Cosmos 2098 Rocket 4.4 23:24:16 65° NNW 23:24:16 65° NNW 23:30:08 10° N
Cosmos 1943 Rocket 4.3 23:19:30 11° NNW 23:23:47 23° NNE 23:28:17 10° E
USA 234 3.2 23:18:37 10° ESE 23:24:40 77° E 23:24:40 77° E
CZ-2D R/B 4.1 23:22:02 10° N 23:23:43 20° N 23:23:43 20° N
ATLAS 3B R/B 3.3 23:31:30 43° SSE 23:31:30 43° SSE 23:35:53 10° SE
COSMOS 2455 3.3 23:31:07 56° NNE 23:31:07 56° NNE 23:35:55 10° NE
CENTAUR R/B 3.0 23:36:38 71° SSW 23:36:38 71° SSW 23:44:50 10° SSE
Cosmos 2344 4.4 23:35:55 22° NW 23:42:31 70° NE 23:54:48 10° ESE
Cosmos 44 Rocket 4.4 23:45:48 37° ESE 23:45:48 37° ESE 23:48:45 10° ESE
SL-16 R/B 4.3 23:48:34 10° SSE 23:52:52 23° ESE 23:57:10 10° NE
ARIANE 5 R/B 3.7 23:49:36 10° N 23:52:24 32° N 23:52:24 32° N
